sat.trackr.live / text

‹ back to catalog

HAWK-13B

NORAD 67396 · 2026-004AK

PAYLOAD ACTIVE UNKNOWN

§ Identity

Operator
Country
US
Launch date
2026-01-11
Launch site
AFWTR
Launch vehicle
Mass (kg)
RCS (m²)

External: N2YO · Heavens-Above · Gunter

§ Orbital elements

Epoch: 2026-05-24T22:35:14.965152Z

Period
94.80 min
Inclination
97.4522°
Eccentricity
0.0008406
Mean motion
15.18915947 rev/d
Perigee alt
503.3 km
Apogee alt
514.9 km
Semi-major
6,887.3 km
B*
2.0936e-4
RAAN
144.3418°
Arg perigee
64.1324°
Mean anomaly
296.0776°
Rev number
2,023

§ Raw data

HAWK-13B1 67396U 26004AK  26144.94114543  .00004305  00000+0  20936-3 0  99952 67396  97.4522 144.3418 0008406  64.1324 296.0776 15.18915947 20239

JSON: /api/v1/satellites/67396 · /tle

For live sub-satellite position, see the globe view (requires WebGL).

§ Visibility from observer

Set your observer location to see the next 7 days of passes ≥ 10°. The values pass through the URL so the page stays shareable.

No JS? Fill the form by hand. The geolocation button needs JavaScript.